Home > Weather > Navi Mumbai > Past weeks

Flag for India Weather for the Past 2 Weeks in Navi Mumbai, Maharashtra, India

Now
75 °F

Fog.


Feels Like: 75 °F
Forecast: 67 / 87 °F
Wind: 3 mph from South

Location: Mumbai / Santacruz

Current Time: Feb 10, 2016 at 9:24:59 AM

Latest Report: Feb 10, 2016 at 8:30 AM


Visibility: 0 mi

Pressure: 29.92 "Hg

Humidity: 83%

Dew point: 70 °F

Location of Navi MumbaiLocation

Historic Weather in Navi Mumbai — Graph

°F

Navi Mumbai Temperature Yesterday

Maximum temperature yesterday: 86 °F (at 1:30 PM)
Minimum temperature yesterday: 72 °F (at 5:00 AM)
Average temperature yesterday: 78 °F

High & Low Weather Summary for the Past Weeks

 TemperatureHumidityPressure
High91 °F (Jan 28, 4:00 PM)88% (Jan 27, 3:30 AM)30.04 "Hg (Jan 27, 3:30 AM)
Low66 °F (Jan 26, 7:30 AM)23% (Jan 26, 11:30 AM)29.80 "Hg (Feb 6, 4:30 AM)
Average78 °F57%29.93 "Hg
* Reported Jan 26 7:30 AM — Feb 10 7:30 AM, Navi Mumbai, Weather by CustomWeather, © 2016

Note: Actual official high and low records may vary slightly from our data, if they occured in-between our weather recording intervals... More about our weather records

Advertising

Navi Mumbai Weather History for the Previous 24 Hours

 ConditionsComfort  
Time TempWeatherWind HumidityBarometerVisibility
7:30 AM
Wed, Feb 10
75 °FFog.5 mph83%29.89 "Hg1 mi
7:00 AM75 °FFog.2 mph83%29.89 "Hg1 mi
6:00 AM75 °FFog.5 mph78%29.86 "Hg1 mi
5:30 AM73 °FFog.No wind83%29.86 "Hg1 mi
5:00 AM75 °FHaze.No wind83%29.86 "Hg1 mi
4:30 AM75 °FHaze.No wind78%29.86 "Hg1 mi
4:00 AM73 °FHaze.No wind78%29.86 "Hg1 mi
3:00 AM75 °FHaze.3 mph74%29.86 "Hg1 mi
2:30 AM75 °FHaze.5 mph69%29.86 "Hg1 mi
2:00 AM75 °FHaze.No wind74%29.86 "Hg1 mi
1:30 AM75 °FFog.No wind78%29.86 "Hg1 mi
1:00 AM75 °FFog.No wind83%29.89 "Hg1 mi
12:30 AM77 °FFog.No wind79%29.89 "Hg1 mi
12:00 AM77 °FFog.No wind79%29.89 "Hg1 mi
11:30 PM
Tue, Feb 9
77 °FFog.3 mph79%29.89 "Hg1 mi
11:00 PM77 °FFog.5 mph79%29.89 "Hg1 mi
10:30 PM77 °FHaze.6 mph79%29.92 "Hg1 mi
10:00 PM77 °FHaze.6 mph74%29.92 "Hg1 mi
9:30 PM77 °FHaze.6 mph69%29.89 "Hg1 mi
9:00 PM79 °FHaze.5 mph65%29.89 "Hg1 mi
8:30 PM79 °FHaze.6 mph61%29.89 "Hg1 mi
8:00 PM81 °FClear.6 mph51%29.89 "Hg1 mi
7:30 PM81 °FClear.6 mph54%29.86 "Hg1 mi
7:00 PM81 °FClear.8 mph48%29.86 "Hg1 mi
6:30 PM82 °FClear.9 mph48%29.86 "Hg1 mi
6:00 PM82 °FClear.9 mph45%29.83 "Hg2 mi
5:30 PM84 °FClear.8 mph45%29.83 "Hg2 mi
5:00 PM84 °FClear.10 mph51%29.83 "Hg2 mi
4:00 PM86 °FClear.10 mph52%29.83 "Hg2 mi
3:30 PM86 °FClear.10 mph52%29.83 "Hg3 mi
3:00 PM86 °FClear.12 mph46%29.83 "Hg3 mi
2:30 PM86 °FClear.9 mph43%29.86 "Hg2 mi
1:30 PM86 °FClear.12 mph52%29.89 "Hg2 mi
1:00 PM84 °FHaze.12 mph55%29.89 "Hg2 mi
12:00 PM82 °FHaze.8 mph62%29.92 "Hg2 mi
11:30 AM82 °FHaze.9 mph62%29.95 "Hg2 mi
11:00 AM84 °FClear.6 mph58%29.95 "Hg1 mi
10:00 AM81 °FClear.3 mph54%29.95 "Hg1 mi
9:00 AM75 °FHaze.3 mph74%29.95 "Hg1 mi
Weather by CustomWeather, © 2016

See weather overviewHow to use our weather pages